This demonstration page uses our WeatherBlox Daily Observations layout. Learn more.

Left ArrowRight Arrow

53.62937, 11.41316

Hourly Observations for June 5, 2015

Temp ( °F °C ) Dew Point ( °F °C ) Humidity (%) Winds ( mph kmh ) Pressure ( in mb ) Visibility ( mi km ) Precip ( " mm )
6:20 am 06:20 Mostly Sunny 52 11 41 5 67 67 E 8 13 30.30 1026 7 11 N/A
6:50 am 06:50 Mostly Sunny 54 12 43 6 67 67 E 9 15 30.30 1026 7 11 N/A
7:20 am 07:20 Mostly Sunny 55 13 41 5 59 59 E 9 15 30.30 1026 7 11 N/A
7:50 am 07:50 Mostly Sunny 57 14 41 5 55 55 ESE 12 19 30.30 1026 7 11 N/A
8:20 am 08:20 Mostly Sunny 61 16 41 5 48 48 ESE 12 19 30.27 1025 7 11 N/A
8:50 am 08:50 Mostly Sunny 61 16 43 6 52 52 ESE 10 17 30.27 1025 7 11 N/A
9:20 am 09:20 Mostly Sunny 64 18 43 6 46 46 ESE 12 19 30.27 1025 7 11 N/A
9:50 am 09:50 Mostly Sunny 66 19 43 6 43 43 SE 13 20 30.27 1025 7 11 N/A
10:20 am 10:20 Mostly Sunny 68 20 45 7 43 43 SE 12 19 30.24 1024 7 11 N/A
10:50 am 10:50 Mostly Sunny 70 21 45 7 40 40 SSE 14 22 30.24 1024 7 11 N/A
11:20 am 11:20 Mostly Sunny 72 22 43 6 36 36 ESE 14 22 30.24 1024 7 11 N/A
11:50 am 11:50 Mostly Sunny 73 23 45 7 36 36 ESE 13 20 30.21 1023 7 11 N/A
12:20 pm 12:20 Mostly Sunny 75 24 46 8 36 36 SE 13 20 30.21 1023 7 11 N/A
12:50 pm 12:50 Mostly Sunny 75 24 46 8 36 36 SE 14 22 30.21 1023 7 11 N/A
1:20 pm 13:20 Mostly Sunny 75 24 46 8 36 36 SSE 12 19 30.18 1022 7 11 N/A
1:50 pm 13:50 Mostly Sunny 77 25 48 9 36 36 S 13 20 30.18 1022 7 11 N/A
2:20 pm 14:20 Mostly Sunny 79 26 50 10 37 37 SSE 13 20 30.18 1022 7 11 N/A
2:50 pm 14:50 Mostly Sunny 79 26 50 10 37 37 SSE 12 19 30.15 1021 7 11 N/A
3:20 pm 15:20 Mostly Sunny 81 27 50 10 34 34 SSE 14 22 30.15 1021 7 11 N/A
3:50 pm 15:50 Mostly Sunny 81 27 50 10 34 34 SSE 10 17 30.15 1021 7 11 N/A
4:20 pm 16:20 Mostly Sunny 81 27 50 10 34 34 SSE 9 15 30.12 1020 7 11 N/A
4:50 pm 16:50 Mostly Sunny 82 28 52 11 35 35 SSE 9 15 30.12 1020 7 11 N/A
5:20 pm 17:20 Mostly Sunny 82 28 50 10 32 32 SSE 9 15 30.12 1020 7 11 N/A
5:50 pm 17:50 Mostly Sunny 82 28 50 10 32 32 SE 9 15 30.09 1019 7 11 N/A
6:20 pm 18:20 Mostly Sunny 82 28 50 10 32 32 ESE 10 17 30.09 1019 7 11 N/A
6:50 pm 18:50 Mostly Sunny 82 28 50 10 32 32 ESE 10 17 30.06 1018 7 11 N/A

Powered by AerisWeather